| time (UTC) | temp F | wind direction | speed MPH | gust MPH | rain 1hr in | rain 24hr in | rain mn in | humidity % | barometer mb |
| 20260503180044 | 55 | 182 | 1.0 | 3.0 | 0.00 | 0.12 | 0.12 | 85 | 1013.0 |
| 20260503174542 | 56 | 176 | 0.0 | 3.0 | 0.00 | 0.12 | 0.12 | 86 | 1012.8 |
| 20260503173053 | 56 | 93 | 1.0 | 3.0 | 0.00 | 0.12 | 0.12 | 83 | 1012.9 |
| 20260503171540 | 57 | 203 | 5.0 | 11.0 | 0.00 | 0.12 | 0.12 | 80 | 1012.7 |
| 20260503100106 | 67 | 76 | 0.0 | 4.0 | 0.00 | 0.00 | 0.00 | 62 | 1013.7 |
| 20260503081531 | 64 | 241 | 6.0 | 9.0 | 0.00 | 0.00 | 0.00 | 65 | 1014.7 |
| 20260503071527 | 61 | 265 | 4.0 | 10.0 | 0.00 | 0.00 | 0.00 | 71 | 1014.6 |
| 20260503054510 | 58 | 262 | 5.0 | 9.0 | 0.00 | 0.00 | 0.00 | 73 | 1014.4 |
| 20260503053009 | 57 | 218 | 5.0 | 9.0 | 0.00 | 0.00 | 0.00 | 74 | 1014.3 |
| 20260503051503 | 57 | 203 | 4.0 | 7.0 | 0.00 | 0.00 | 0.00 | 75 | 1014.3 |
| 20260503050001 | 56 | 235 | 3.0 | 8.0 | 0.00 | 0.00 | 0.00 | 77 | 1014.2 |
| 20260503044626 | 54 | 263 | 4.0 | 6.0 | 0.00 | 0.00 | 0.00 | 80 | 1014.3 |
| 20260503043058 | 53 | 191 | 2.0 | 4.0 | 0.00 | 0.00 | 0.00 | 81 | 1014.3 |
| 20260503041556 | 53 | 235 | 1.0 | 3.0 | 0.00 | 0.00 | 0.00 | 79 | 1014.2 |
| 20260503040058 | 53 | 277 | 1.0 | 4.0 | 0.00 | 0.00 | 0.00 | 79 | 1014.3 |
| 20260503034557 | 52 | 284 | 3.0 | 4.0 | 0.00 | 0.00 | 0.00 | 81 | 1014.2 |
| 20260503033052 | 52 | 201 | 2.0 | 4.0 | 0.00 | 0.00 | 0.00 | 82 | 1014.3 |
| 20260503031550 | 52 | 190 | 0.0 | 0.0 | 0.00 | 0.00 | 0.00 | 82 | 1014.2 |
| 20260503024555 | 51 | 189 | 1.0 | 4.0 | 0.00 | 0.00 | 0.00 | 82 | 1014.6 |
| 20260503023048 | 52 | 267 | 1.0 | 4.0 | 0.00 | 0.00 | 0.00 | 79 | 1014.7 |
| 20260503021542 | 52 | 241 | 2.0 | 3.0 | 0.00 | 0.00 | 0.00 | 79 | 1014.9 |
| 20260503020039 | 54 | 241 | 3.0 | 4.0 | 0.00 | 0.00 | 0.00 | 76 | 1015.0 |
| 20260503014543 | 55 | 279 | 2.0 | 4.0 | 0.00 | 0.00 | 0.00 | 75 | 1015.1 |
| 20260503013034 | 57 | 232 | 0.0 | 0.0 | 0.00 | 0.00 | 0.00 | 72 | 1015.1 |
| 20260503011534 | 58 | 232 | 0.0 | 4.0 | 0.00 | 0.00 | 0.00 | 70 | 1015.1 |
| 20260503010033 | 58 | 240 | 3.0 | 5.0 | 0.00 | 0.00 | 0.00 | 71 | 1015.2 |
| 20260503004530 | 57 | 205 | 4.0 | 7.0 | 0.00 | 0.00 | 0.00 | 74 | 1015.4 |
| 20260503003033 | 57 | 216 | 4.0 | 6.0 | 0.00 | 0.00 | 0.00 | 75 | 1015.4 |
| 20260503001527 | 58 | 232 | 5.0 | 6.0 | 0.00 | 0.00 | 0.00 | 76 | 1015.6 |
| 20260503000030 | 56 | 228 | 4.0 | 7.0 | 0.00 | 0.00 | 0.00 | 76 | 1015.7 |
| 20260502234545 | 56 | 237 | 3.0 | 5.0 | 0.00 | 0.00 | 0.00 | 76 | 1015.7 |
| 20260502233022 | 56 | 238 | 3.0 | 5.0 | 0.00 | 0.00 | 0.00 | 77 | 1015.7 |
| 20260502231524 | 57 | 225 | 4.0 | 6.0 | 0.00 | 0.00 | 0.00 | 75 | 1015.8 |
| 20260502230016 | 60 | 241 | 3.0 | 7.0 | 0.00 | 0.00 | 0.00 | 71 | 1015.7 |
| 20260502224512 | 60 | 266 | 4.0 | 7.0 | 0.00 | 0.00 | 0.00 | 72 | 1015.9 |
| 20260502223027 | 59 | 267 | 4.0 | 8.0 | 0.00 | 0.00 | 0.00 | 75 | 1015.8 |
| 20260502221507 | 59 | 253 | 4.0 | 7.0 | 0.00 | 0.00 | 0.00 | 75 | 1016.0 |
| 20260502220006 | 58 | 247 | 5.0 | 7.0 | 0.00 | 0.00 | 0.00 | 76 | 1015.8 |
| 20260502214504 | 58 | 240 | 3.0 | 4.0 | 0.00 | 0.00 | 0.00 | 77 | 1015.9 |
| 20260502213004 | 58 | 220 | 0.0 | 3.0 | 0.00 | 0.00 | 0.00 | 76 | 1015.8 |
| 20260502211503 | 58 | 220 | 3.0 | 5.0 | 0.00 | 0.00 | 0.00 | 73 | 1015.7 |
| 20260502210003 | 60 | 239 | 2.0 | 3.0 | 0.00 | 0.00 | 0.00 | 68 | 1015.7 |
| 20260502204503 | 62 | 241 | 0.0 | 2.0 | 0.00 | 0.00 | 0.00 | 65 | 1015.9 |
| 20260502203002 | 63 | 241 | 4.0 | 8.0 | 0.00 | 0.00 | 0.00 | 63 | 1015.7 |
| 20260502201501 | 65 | 237 | 4.0 | 9.0 | 0.00 | 0.00 | 0.00 | 60 | 1015.6 |
| 20260502200001 | 65 | 247 | 6.0 | 10.0 | 0.00 | 0.00 | 0.00 | 59 | 1015.8 |
| 20260502194601 | 64 | 246 | 5.0 | 9.0 | 0.00 | 0.00 | 0.00 | 61 | 1015.7 |
| 20260502193100 | 62 | 233 | 6.0 | 9.0 | 0.00 | 0.00 | 0.00 | 65 | 1015.7 |
| 20260502191603 | 61 | 206 | 2.0 | 4.0 | 0.00 | 0.00 | 0.00 | 70 | 1015.6 |
| 20260502190059 | 60 | 205 | 3.0 | 5.0 | 0.00 | 0.00 | 0.00 | 69 | 1015.6 |
| 20260502184558 | 61 | 204 | 2.0 | 5.0 | 0.00 | 0.00 | 0.00 | 68 | 1015.3 |
| 20260502183107 | 62 | 203 | 1.0 | 3.0 | 0.00 | 0.00 | 0.00 | 67 | 1015.3 |
| 20260502181558 | 63 | 209 | 3.0 | 4.0 | 0.00 | 0.00 | 0.00 | 65 | 1015.3 |